User: anonymous   Login
Location: Castiglione Fibocchi
(43.5333°N, 11.7667°E)
Time: 13:01:41
(UTC+00:00)
Language:

SeaSat 1 - Orbit

View from above orbital plane
View from above orbital plane
View from above satellite
View from above satellite

Ground track
Ground track

The orbit data is extracted from the following two-line orbital elements,

1 10967U 78064A   20294.38696712 -.00000089 +00000-0 +14218-4 0  9995
2 10967 108.0057 332.0680 0002826 251.1837 108.9001 14.43840108222854
Epoch (UTC): 20 October 2020 09:17:13
Eccentricity: 0.0002826
inclination: 108.0057°
perigee height: 744 km
apogee height: 748 km
right ascension of ascending node: 332.0680°
argument of perigee: 251.1837°
revolutions per day: 14.43840108
mean anomaly at epoch: 108.9001°
orbit number at epoch: 22285

The dashed part of the orbit path shows where the satellite is in the earth's shadow,  

DLR